{"data":{"norad_id":60082,"epoch":"2026-09-22T23:27:52.775424Z","epoch_age_seconds":64456,"freshness":"FRESH","line1":"1 60082U 24114D   26265.97769416  .00000333  00000+0  55139-4 0  9993","line2":"2 60082  97.9869 285.0513 0000785 161.4335 198.6904 14.76428117121555","mean_motion":14.76428117,"eccentricity":7.85e-5,"inclination_deg":97.9869,"raan_deg":285.0513,"arg_perigee_deg":161.4335,"mean_anomaly_deg":198.6904,"bstar":5.5139e-5,"rev_number":12155,"period_min":97.532686042716,"perigee_km":640.07058536926,"apogee_km":641.17253046285,"semimajor_km":7018.7585579161,"source":"CELESTRAK","updated_at":"2026-09-23T09:00:20.407104Z"}}